Vorticity
46 46 47 47 46 47 47 46 47 48 48 47 48 48 49 49 48 48 48 48 49 49 48 47 45 43 39 36 32 28 25 22 20 18 16 15 14 13 13 13 11 10 8 8 8 9 9 7 5 3 1 0 -0 -0 1 2 4 6 7 6 5 4 4 5 6 7 7 6 5 4 5 6 7 6 5 3 3 4 6 9 11 13 15 16 17 17
44 44 42 42 42 43 42 41 41 43 45 43 42 42 42 42 42 43 43 44 45 47 48 49 49 49 48 46 43 39 35 31 27 23 20 17 16 14 13 13 12 11 9 8 9 9 10 9 8 6 4 2 0 -0 -0 1 2 4 6 6 6 5 4 4 4 5 6 6 5 4 4 5 6 7 6 5 4 3 4 5 8 10 13 15 17 17
38 37 36 35 35 35 35 35 36 36 38 39 37 36 35 36 36 36 37 38 40 41 42 44 46 48 50 50 49 48 46 43 38 33 27 23 20 17 15 14 13 12 10 9 9 10 10 10 9 8 7 4 2 1 -0 -0 1 2 4 5 6 6 5 4 4 4 5 5 5 5 4 4 5 7 8 7 5 4 3 3 5 7 10 13 15 17
32 31 30 28 27 28 29 30 31 31 32 32 31 30 29 30 30 31 31 34 35 36 36 38 41 44 46 48 48 49 51 50 48 44 39 33 28 23 19 17 15 13 11 10 9 10 11 11 10 10 9 7 5 3 1 0 -0 0 2 3 5 6 6 5 4 4 3 4 5 5 4 4 4 6 7 8 7 6 4 3 3 4 7 10 13 15
25 24 24 23 23 24 25 26 27 27 25 24 23 23 23 25 27 28 28 29 32 34 35 36 38 40 43 44 45 47 49 50 51 50 48 44 38 33 27 23 19 16 13 11 10 10 11 12 11 11 10 9 8 6 4 2 0 -0 0 1 3 5 6 6 5 4 3 3 4 4 5 4 4 4 6 7 8 7 5 4 3 3 4 6 9 12
19 19 19 20 21 22 23 23 22 22 20 18 18 19 21 24 26 27 27 27 29 30 32 34 36 38 40 41 42 44 46 48 49 50 50 49 46 42 38 32 27 23 19 15 13 12 12 12 12 12 11 10 9 8 6 4 2 1 -0 0 1 3 5 6 6 5 4 3 3 3 4 4 4 3 4 6 7 8 7 5 4 2 2 3 6 9
13 14 15 16 18 19 19 19 19 18 17 16 17 19 21 23 24 24 23 22 22 23 25 28 31 34 37 38 40 42 44 46 47 48 49 50 49 47 45 41 37 32 27 23 19 16 14 14 13 13 12 11 11 10 9 7 5 3 1 0 0 1 3 5 6 6 5 4 3 3 3 4 4 3 3 4 6 7 8 7 6 4 2 2 3 5
8 9 11 12 13 13 14 15 15 15 15 16 17 18 19 19 18 16 14 12 13 14 18 24 28 32 34 37 38 40 42 44 45 47 48 48 49 48 47 45 43 39 36 32 27 23 19 17 15 14 13 12 11 11 10 9 7 5 3 2 1 1 1 3 5 6 6 5 4 4 3 4 4 3 3 3 4 6 7 8 7 6 4 3 2 3
4 5 7 8 9 8 8 9 11 13 13 14 14 13 12 10 7 5 4 3 5 9 15 23 28 32 34 35 38 40 42 43 44 46 47 47 48 48 47 46 45 43 41 39 36 32 28 23 20 17 15 14 13 12 11 11 10 8 6 4 2 1 0 1 3 4 6 6 5 5 4 4 4 4 3 3 3 4 6 7 8 7 6 4 3 2
5 6 6 6 6 5 3 3 5 8 10 10 9 8 5 1 -1 -2 -1 -0 2 7 13 21 27 30 32 33 35 38 42 43 44 45 46 47 47 47 46 46 45 45 43 42 41 39 36 32 28 23 19 17 14 13 12 12 11 10 9 6 4 2 1 0 1 2 5 6 6 5 5 4 4 4 3 3 3 3 4 6 7 8 7 6 4 3
10 11 10 8 6 4 3 2 2 3 5 6 6 5 3 0 -1 -1 -1 -0 2 7 13 19 23 26 27 28 30 34 39 43 44 43 43 45 46 46 46 45 45 44 44 44 43 42 41 38 35 31 27 22 19 16 13 12 12 12 11 9 7 5 2 1 0 1 3 5 6 6 5 5 4 4 3 3 3 3 3 5 6 7 8 7 6 4
17 18 17 14 11 8 7 6 5 5 4 4 4 4 3 2 2 2 3 3 4 7 12 16 19 20 20 21 24 28 33 39 42 43 42 43 44 45 46 45 44 43 43 43 43 43 43 41 39 37 33 29 25 21 17 15 13 13 12 11 9 7 5 3 1 1 1 3 5 6 6 5 5 4 3 3 3 3 3 4 5 7 8 8 7 6
22 22 22 20 17 14 13 13 13 13 12 9 6 5 4 3 4 5 7 8 9 9 10 10 12 14 15 14 17 21 27 33 37 40 42 42 42 42 44 45 44 42 41 42 42 42 42 42 42 41 38 35 31 27 23 19 16 14 13 13 11 10 8 6 3 1 0 1 3 5 6 6 5 4 4 3 3 3 3 3 4 5 7 7 7 7
21 22 21 20 18 16 15 15 16 17 19 17 14 10 7 6 6 7 10 11 11 10 8 7 8 10 11 10 11 14 21 28 35 39 41 41 39 39 41 42 42 41 40 41 41 41 40 42 43 43 42 39 37 33 29 25 22 18 15 14 13 12 11 8 6 4 1 1 2 3 5 6 6 5 4 4 3 3 3 3 3 4 5 6 7 7
16 16 16 15 14 13 12 11 12 14 17 19 18 15 10 7 7 9 13 13 11 8 6 6 6 8 9 9 9 11 16 24 32 38 41 39 37 36 38 40 40 38 37 39 41 41 39 41 44 45 45 43 41 39 35 32 28 24 20 17 15 14 13 11 9 6 4 2 1 1 3 5 6 5 5 4 4 3 3 3 3 3 4 5 7 7
9 8 8 8 9 9 9 9 11 13 17 19 19 16 11 8 9 12 18 16 11 7 5 4 4 5 8 8 8 9 12 19 27 34 40 40 37 34 35 38 38 37 35 37 39 40 39 40 43 45 46 45 45 44 41 37 34 31 27 22 19 17 15 14 12 9 7 4 2 1 1 3 5 5 5 5 4 3 3 3 3 3 3 4 6 7
3 4 5 6 8 9 11 12 14 17 20 22 20 16 11 10 13 18 24 20 13 7 6 5 3 2 4 7 8 8 8 15 22 30 38 41 39 35 33 36 37 37 36 36 37 37 37 39 42 43 44 45 47 47 46 43 39 36 33 29 25 21 18 17 15 12 10 7 4 1 0 2 3 4 5 5 4 4 3 3 3 3 3 4 5 6
5 7 9 10 12 13 15 15 17 18 21 22 21 18 14 14 17 23 29 23 14 7 4 5 5 5 4 7 8 7 6 11 18 27 35 40 39 36 33 35 36 36 36 36 35 35 35 37 40 41 42 44 46 47 47 46 44 41 38 35 31 27 22 19 18 16 13 10 7 3 1 0 1 3 5 5 5 4 4 3 3 3 3 3 4 5
10 12 13 13 13 13 13 13 14 15 17 19 20 19 18 18 21 26 29 23 15 7 3 4 6 7 8 8 8 7 6 8 14 22 32 38 39 37 34 34 35 35 35 35 34 33 33 35 36 37 39 42 45 46 47 48 47 46 43 41 37 34 29 24 20 17 15 13 10 6 3 1 1 2 4 5 5 5 4 3 3 2 2 3 3 4
13 13 12 11 11 10 10 10 11 12 13 16 17 17 17 18 21 24 26 21 14 8 4 5 7 8 9 9 9 8 6 7 11 17 25 33 37 37 33 32 33 33 34 35 34 34 34 34 33 33 35 38 41 43 45 47 47 47 46 44 42 40 36 32 26 21 17 15 12 9 6 3 1 1 2 4 5 5 4 4 3 2 2 2 3 3
14 12 10 9 8 8 8 9 10 11 13 15 16 16 17 17 19 21 21 17 13 8 6 7 8 9 8 8 8 8 7 7 9 13 21 30 35 36 32 31 30 31 32 32 33 34 35 35 33 31 31 34 36 38 41 43 44 44 44 43 42 41 40 37 34 29 23 20 17 13 9 6 3 1 1 3 4 4 4 4 3 3 2 2 2 3
15 13 11 10 10 10 10 10 11 12 14 15 16 16 16 17 18 19 18 15 11 8 7 8 8 8 8 9 9 9 7 6 7 11 19 29 34 34 32 30 30 29 29 29 30 32 35 35 34 32 30 31 32 33 35 37 38 38 39 40 41 40 39 37 36 34 31 28 24 20 15 10 6 3 1 2 2 3 4 4 3 3 2 2 2 2
17 16 16 16 16 14 12 11 12 13 16 17 17 17 17 18 18 17 15 12 10 9 9 9 9 9 10 11 12 11 8 8 8 10 16 25 30 32 34 31 30 29 29 28 29 31 34 35 35 33 32 31 30 31 32 32 33 34 34 37 39 40 40 38 35 32 30 30 29 26 21 15 9 5 2 1 1 2 3 4 4 3 3 2 2 2
20 21 22 21 19 16 13 13 14 16 18 19 19 19 19 19 18 16 13 11 10 10 10 10 10 10 12 14 14 13 11 10 9 10 13 21 27 31 35 32 30 29 29 29 28 29 31 32 33 32 32 31 30 31 32 34 35 36 36 37 38 40 42 41 37 33 28 27 27 27 26 20 14 8 4 2 1 2 2 3 4 4 3 3 2 2
21 22 22 21 19 17 17 18 19 20 21 21 22 22 22 21 18 15 12 10 10 10 11 10 10 10 11 13 14 14 13 12 11 11 13 18 24 29 32 29 28 27 27 26 26 26 26 27 28 28 28 28 28 29 32 35 37 39 40 39 38 38 40 40 39 35 30 26 25 25 26 23 19 13 7 4 2 2 2 3 4 4 4 3 3 3
16 18 19 20 21 23 24 25 25 24 24 24 23 23 22 20 17 13 10 10 10 11 12 11 11 11 12 14 15 16 15 14 13 13 14 17 21 26 29 25 23 22 22 21 21 22 22 22 22 22 23 24 25 27 30 32 35 37 39 38 37 37 37 37 37 36 33 28 25 24 25 24 22 17 12 7 4 3 3 3 4 4 4 4 3 3
16 18 20 23 25 26 26 26 27 27 28 27 26 24 22 18 15 12 9 10 11 12 12 12 12 12 14 16 19 20 19 18 17 17 17 17 19 22 26 21 18 17 17 17 18 18 19 19 18 18 20 21 23 25 28 30 32 34 36 37 37 37 37 36 36 35 34 31 28 25 24 24 23 20 16 11 7 5 4 4 4 4 4 4 4 3
23 24 24 23 21 19 18 22 26 30 32 32 30 27 23 19 15 13 11 12 13 13 12 12 13 15 17 21 24 26 27 27 25 23 21 18 18 20 23 20 17 14 13 14 15 16 18 17 17 18 19 20 22 24 27 29 31 33 35 36 37 38 38 38 38 36 35 32 30 28 26 25 24 22 19 14 10 7 5 4 4 4 4 4 4 4
29 27 23 15 9 6 7 16 24 29 32 31 30 28 26 23 20 17 16 16 16 15 15 16 18 20 24 27 30 33 36 38 36 30 23 19 18 18 22 21 18 15 13 14 15 17 18 18 19 19 19 19 20 22 25 27 29 31 33 35 36 38 40 40 40 39 36 34 32 31 29 27 26 24 22 18 13 9 7 6 5 5 4 4 4 4
27 25 18 7 0 -1 3 13 21 25 24 23 23 24 24 23 22 21 20 21 21 21 20 22 25 28 31 30 30 32 40 46 42 33 22 18 16 18 23 23 22 19 16 16 17 18 19 20 21 20 19 18 19 20 22 24 25 27 29 31 33 35 38 41 42 42 39 36 34 32 31 29 28 26 24 20 16 12 9 7 6 5 4 4 4 4
24 23 16 7 3 4 9 18 22 22 17 16 18 21 24 24 24 24 25 27 28 28 28 29 30 31 29 26 24 26 37 44 40 30 20 17 16 17 23 25 26 24 21 19 19 20 21 22 23 22 21 19 18 18 19 21 23 24 25 26 29 31 36 40 44 45 44 40 37 34 33 31 29 27 25 22 19 15 11 9 7 5 5 4 5 5
23 24 19 14 12 14 19 23 22 17 11 12 16 21 26 29 30 31 32 33 34 33 32 29 28 26 24 21 20 23 32 38 34 26 17 15 15 18 24 26 28 28 26 23 22 22 23 25 25 25 23 21 20 19 19 20 22 23 24 25 27 30 33 38 43 46 47 45 41 38 35 33 32 29 27 24 21 18 14 11 8 6 5 5 5 5
26 28 26 23 22 23 26 24 18 11 6 8 13 19 26 30 33 35 36 35 34 33 30 26 24 23 23 22 21 23 28 31 27 20 12 13 14 18 24 27 29 30 30 27 25 24 24 25 26 26 25 23 22 21 21 21 22 23 25 27 29 31 34 38 41 44 45 45 43 40 37 35 34 32 29 26 23 20 17 13 10 7 6 5 5 5
30 33 33 32 31 30 29 22 13 6 0 1 6 13 21 26 29 30 30 30 29 27 24 22 22 22 23 24 25 26 28 26 21 14 7 9 12 16 23 26 28 30 30 30 29 27 26 26 26 26 26 25 24 22 22 21 22 23 25 28 31 33 36 39 41 42 43 43 42 40 38 36 35 34 32 29 26 22 19 16 13 10 7 5 5 4
28 31 33 35 36 34 30 20 10 0 -5 -4 2 8 14 15 17 17 17 17 16 16 16 16 16 16 16 18 23 28 31 26 18 11 4 6 9 13 18 20 22 24 26 28 30 30 28 27 25 25 26 26 25 24 22 22 23 24 25 27 30 33 36 40 43 44 43 42 40 39 37 36 35 35 34 31 28 25 22 19 15 12 9 7 5 4
18 18 19 22 25 28 29 22 13 4 0 4 8 11 10 7 6 6 6 6 6 6 8 8 8 7 5 6 10 18 26 25 21 14 8 8 8 9 11 12 14 16 19 24 28 29 28 27 25 24 25 26 26 26 25 25 25 26 26 27 29 31 34 39 42 44 44 43 40 38 36 35 35 34 34 32 30 27 25 21 18 15 11 8 6 4
11 8 6 5 7 11 18 21 19 16 15 19 22 21 12 5 3 3 4 5 5 5 6 5 4 1 -1 -3 -1 4 12 17 18 16 12 9 7 6 6 8 11 14 17 23 26 28 28 26 24 23 23 25 27 30 31 31 30 29 28 28 30 32 34 38 41 43 44 43 41 39 36 35 34 34 33 33 31 29 27 24 21 17 14 10 7 4
11 8 5 3 0 -0 2 11 19 26 30 33 32 26 13 5 2 3 5 7 8 10 10 10 9 8 6 3 0 -0 1 7 10 12 10 7 6 6 8 13 18 22 25 26 28 29 29 28 28 29 31 34 35 35 34 33 32 30 29 31 32 34 35 38 41 43 44 44 42 40 37 35 34 33 33 33 32 31 29 26 23 20 17 13 10 7
12 11 11 10 8 4 1 6 15 27 37 38 33 24 12 7 5 5 6 8 10 13 15 18 20 22 23 23 21 17 13 11 12 13 13 12 14 17 24 29 33 34 32 31 32 34 37 40 42 43 43 43 39 33 27 23 22 24 29 34 36 35 35 38 40 42 43 43 42 40 37 35 34 33 32 32 31 30 29 27 25 22 19 16 13 10
12 13 15 17 17 15 11 10 15 24 33 34 31 24 18 14 13 13 14 15 16 18 21 23 26 30 34 35 34 31 27 27 28 30 30 30 32 34 35 33 33 32 32 35 40 44 47 48 45 40 33 27 20 15 12 11 11 13 21 33 38 39 39 40 41 41 42 42 41 39 37 35 34 32 31 31 30 29 28 27 26 24 21 17 15 12
10 14 17 20 20 19 15 13 16 22 29 31 30 27 24 22 23 24 25 27 28 29 29 28 29 31 33 34 35 36 38 42 43 42 40 35 30 25 21 20 23 28 35 41 42 39 31 22 14 8 3 -2 -4 -3 0 4 5 6 13 27 36 42 44 42 42 41 41 40 39 38 36 35 34 32 31 30 30 29 29 28 27 26 24 20 17 14
7 11 16 18 18 16 13 12 13 17 22 24 26 26 24 23 23 25 28 28 29 29 31 32 32 33 33 34 36 38 39 32 22 11 2 -0 1 4 10 18 24 29 31 28 20 10 2 -3 -7 -9 -9 -9 -9 -6 -0 6 8 9 14 27 37 43 42 37 37 39 40 40 39 37 36 34 33 31 30 30 29 29 29 28 27 26 25 23 21 17
9 11 15 17 17 15 12 10 9 10 11 14 18 19 17 14 12 13 17 19 18 18 21 26 28 28 28 28 25 20 10 -1 -7 -9 -8 -5 1 7 14 18 17 12 6 -0 -6 -11 -13 -11 -9 -7 -5 -3 -1 3 12 20 19 17 18 31 38 39 34 32 35 38 38 38 37 36 34 35 32 29 30 29 29 29 28 28 27 26 25 24 23 21
17 18 19 21 21 19 16 13 9 6 3 5 8 10 10 8 5 4 4 5 5 5 7 13 16 17 15 12 7 0 -7 -7 -4 1 8 14 17 17 13 4 -3 -7 -9 -10 -9 -7 -4 -4 -2 -0 1 1 5 14 28 31 25 19 22 33 34 28 21 30 39 42 39 37 37 36 33 32 31 30 31 30 30 29 28 28 28 27 27 26 25 23
23 23 23 25 25 26 25 22 18 11 4 2 3 6 9 10 9 7 5 3 2 0 0 4 7 9 7 6 5 5 6 10 15 20 24 26 25 22 16 7 0 -2 1 7 12 15 16 13 10 7 5 3 11 24 36 29 21 19 27 36 34 27 23 33 39 41 39 37 36 35 34 33 31 30 31 30 30 29 28 28 28 27 27 26 25 24
23 23 23 24 26 27 29 30 27 22 13 8 7 9 13 16 17 16 13 11 8 5 3 5 9 13 15 15 15 17 20 25 28 30 30 29 28 26 23 17 14 13 14 18 22 24 25 22 18 13 9 12 22 31 32 22 19 23 34 40 39 35 34 37 38 37 35 35 35 34 34 33 32 31 30 30 29 29 29 28 27 27 26 26 25 24
19 19 19 20 21 23 25 26 26 25 21 15 12 12 16 21 24 25 24 21 18 15 11 12 16 19 21 22 24 26 28 28 27 25 24 24 24 23 22 22 24 25 27 27 27 25 22 19 16 14 13 19 27 30 25 21 25 32 40 40 38 36 36 35 34 32 31 31 32 33 33 33 32 31 30 30 30 29 28 28 28 27 26 25 25 25
16 15 15 16 17 18 20 21 22 22 20 16 14 13 15 20 25 29 31 30 27 23 19 19 21 23 22 21 20 19 18 15 13 11 9 9 9 10 11 13 15 19 23 25 23 19 16 14 12 12 14 23 30 31 27 29 34 38 39 35 32 31 31 30 29 28 28 28 29 29 30 30 29 28 28 29 29 29 28 28 28 27 27 26 25 25
16 14 12 12 12 13 15 17 18 19 18 17 16 15 15 17 20 23 27 29 28 26 23 24 24 23 19 15 12 9 5 3 2 1 -0 -0 -1 -2 -5 -6 -4 0 7 11 13 14 14 13 12 13 18 29 35 37 34 37 39 39 35 31 29 27 27 27 26 25 24 24 25 25 26 25 25 25 24 24 26 27 28 28 28 28 27 27 26 26
18 15 13 11 10 9 9 11 13 15 17 18 19 19 19 18 17 16 17 19 20 21 22 23 21 18 14 11 8 4 2 3 6 7 8 6 2 -4 -9 -9 -7 -1 8 15 19 22 24 22 20 19 21 28 33 35 34 35 34 31 26 21 17 14 13 15 17 18 18 19 19 20 21 22 24 24 22 22 24 25 27 27 27 27 27 26 26 26
22 19 17 14 12 10 8 8 9 10 13 15 18 20 22 20 18 16 14 13 14 15 17 17 15 12 9 7 5 4 5 9 12 13 10 4 -2 -7 -11 -8 -1 8 17 21 22 23 23 22 19 18 16 17 20 23 27 27 24 18 11 2 -5 -8 -7 -2 5 10 13 15 17 17 18 22 24 24 23 23 23 23 23 24 24 24 24 24 24 25
Height
5435 5433 5432 5431 5429 5428 5426 5426 5424 5422 5420 5419 5418 5417 5415 5413 5412 5411 5410 5409 5409 5409 5409 5409 5409 5410 5411 5413 5415 5417 5420 5423 5426 5429 5433 5436 5441 5445 5449 5454 5458 5463 5466 5469 5472 5475 5478 5482 5486 5490 5494 5497 5501 5504 5508 5512 5516 5520 5525 5529 5534 5538 5542 5546 5550 5553 5556 5559 5562 5565 5567 5571 5575 5579 5583 5586 5589 5593 5596 5599 5603 5605 5608 5611 5615 5619
5426 5424 5423 5422 5420 5419 5418 5417 5417 5415 5412 5410 5409 5408 5407 5404 5403 5402 5401 5400 5399 5398 5397 5397 5397 5397 5398 5399 5401 5403 5405 5407 5410 5414 5417 5421 5425 5429 5434 5439 5443 5448 5452 5456 5459 5462 5465 5469 5474 5478 5482 5486 5490 5494 5498 5502 5506 5510 5514 5519 5524 5529 5533 5538 5541 5545 5548 5552 5554 5557 5560 5563 5567 5572 5576 5580 5583 5586 5589 5593 5596 5599 5602 5605 5609 5612
5419 5417 5415 5414 5413 5412 5411 5410 5409 5408 5405 5403 5401 5400 5399 5397 5395 5394 5393 5391 5390 5389 5388 5387 5387 5386 5387 5387 5388 5389 5391 5393 5395 5398 5401 5405 5409 5414 5419 5423 5428 5433 5438 5442 5445 5448 5452 5456 5461 5465 5470 5474 5479 5483 5487 5491 5495 5500 5504 5509 5514 5519 5523 5528 5532 5536 5540 5544 5547 5549 5553 5556 5559 5564 5569 5572 5576 5579 5583 5586 5590 5593 5596 5599 5603 5606
5414 5411 5409 5407 5406 5405 5404 5403 5402 5401 5399 5397 5395 5394 5392 5390 5388 5386 5385 5384 5382 5381 5380 5379 5378 5377 5376 5376 5377 5377 5379 5380 5381 5383 5386 5390 5394 5399 5403 5408 5413 5418 5423 5427 5431 5435 5438 5443 5448 5452 5457 5462 5467 5472 5476 5481 5485 5490 5494 5499 5504 5509 5514 5518 5523 5527 5531 5535 5539 5542 5545 5549 5552 5556 5560 5564 5568 5572 5575 5579 5583 5586 5590 5593 5596 5600
5408 5406 5403 5401 5400 5399 5398 5397 5396 5394 5393 5391 5389 5388 5386 5384 5382 5380 5378 5377 5376 5374 5372 5371 5370 5369 5367 5366 5366 5367 5367 5368 5369 5370 5373 5376 5379 5384 5388 5393 5398 5403 5408 5413 5417 5421 5424 5429 5434 5439 5444 5450 5455 5460 5465 5470 5475 5479 5484 5489 5494 5499 5504 5509 5513 5518 5522 5527 5531 5534 5538 5541 5545 5549 5553 5556 5560 5564 5568 5572 5575 5579 5583 5587 5590 5593
5403 5401 5398 5396 5394 5393 5392 5391 5390 5389 5387 5385 5384 5382 5380 5379 5376 5374 5373 5371 5369 5368 5365 5364 5362 5361 5359 5358 5357 5357 5357 5357 5358 5358 5360 5363 5366 5370 5374 5378 5383 5388 5393 5398 5402 5407 5411 5415 5420 5426 5432 5437 5443 5449 5454 5459 5464 5469 5474 5479 5484 5489 5494 5499 5504 5509 5513 5518 5522 5526 5530 5533 5537 5541 5544 5548 5552 5557 5561 5564 5569 5572 5576 5579 5583 5586
5397 5396 5394 5391 5388 5387 5386 5385 5385 5384 5381 5379 5377 5376 5375 5373 5371 5369 5368 5366 5364 5362 5359 5357 5355 5354 5352 5351 5350 5349 5348 5348 5347 5348 5349 5351 5354 5357 5360 5364 5369 5374 5378 5383 5387 5392 5396 5401 5407 5413 5419 5424 5430 5436 5442 5448 5453 5459 5464 5469 5474 5479 5484 5489 5494 5499 5504 5509 5513 5518 5522 5525 5529 5533 5537 5540 5544 5549 5553 5557 5561 5565 5569 5573 5576 5579
5390 5389 5389 5386 5384 5381 5381 5380 5380 5378 5376 5373 5371 5369 5369 5368 5367 5365 5363 5361 5359 5356 5354 5351 5349 5347 5346 5344 5343 5341 5339 5339 5338 5338 5339 5340 5342 5344 5348 5351 5355 5359 5364 5368 5373 5377 5383 5388 5394 5399 5405 5411 5418 5424 5430 5436 5442 5448 5453 5459 5464 5469 5474 5479 5484 5489 5494 5499 5504 5509 5514 5518 5522 5525 5529 5533 5537 5541 5546 5550 5554 5558 5563 5566 5569 5573
5384 5383 5382 5382 5379 5377 5375 5375 5375 5374 5371 5368 5365 5364 5363 5362 5361 5360 5358 5356 5354 5351 5348 5345 5342 5341 5339 5338 5336 5334 5332 5331 5330 5329 5330 5331 5332 5334 5336 5339 5343 5346 5350 5354 5359 5364 5369 5375 5380 5386 5392 5398 5405 5411 5418 5424 5430 5436 5442 5448 5454 5459 5464 5469 5474 5479 5485 5490 5495 5500 5505 5509 5514 5518 5522 5525 5529 5534 5538 5542 5547 5551 5555 5559 5563 5566
5379 5378 5376 5375 5375 5373 5370 5369 5369 5369 5367 5363 5360 5359 5358 5356 5354 5353 5352 5350 5349 5346 5343 5340 5337 5334 5332 5331 5330 5328 5326 5324 5323 5322 5322 5322 5323 5324 5326 5328 5331 5334 5338 5342 5346 5351 5356 5361 5367 5373 5379 5385 5392 5399 5405 5412 5419 5425 5431 5437 5443 5449 5454 5459 5464 5470 5476 5481 5486 5491 5496 5501 5505 5510 5514 5518 5522 5526 5530 5535 5539 5544 5548 5552 5556 5559
5373 5372 5370 5369 5369 5368 5366 5364 5364 5363 5362 5359 5356 5354 5353 5351 5349 5346 5344 5344 5343 5342 5339 5335 5332 5329 5327 5325 5324 5323 5320 5317 5315 5315 5314 5314 5314 5315 5316 5318 5321 5324 5327 5330 5334 5338 5343 5348 5354 5360 5366 5373 5379 5386 5393 5400 5407 5414 5420 5426 5432 5438 5443 5449 5455 5461 5466 5472 5477 5482 5487 5492 5497 5502 5506 5510 5515 5519 5523 5527 5532 5537 5541 5545 5549 5553
5368 5366 5364 5363 5362 5362 5361 5360 5359 5358 5356 5354 5351 5349 5348 5347 5345 5342 5339 5337 5337 5337 5334 5330 5327 5325 5323 5321 5319 5316 5314 5312 5309 5308 5307 5306 5306 5307 5308 5309 5312 5314 5317 5319 5322 5326 5330 5335 5341 5347 5354 5360 5367 5374 5381 5388 5395 5402 5409 5415 5421 5427 5433 5439 5445 5451 5457 5463 5468 5473 5479 5484 5489 5494 5498 5503 5507 5512 5516 5520 5524 5529 5534 5538 5542 5546
5362 5360 5358 5357 5356 5356 5355 5354 5352 5351 5350 5348 5346 5343 5341 5341 5339 5337 5333 5331 5331 5331 5329 5325 5322 5321 5319 5317 5314 5311 5309 5306 5303 5301 5299 5299 5300 5300 5300 5301 5302 5304 5306 5308 5311 5315 5319 5324 5330 5336 5342 5349 5355 5362 5369 5376 5383 5390 5397 5404 5410 5416 5422 5429 5435 5442 5448 5454 5459 5464 5469 5475 5480 5485 5490 5495 5500 5504 5509 5513 5517 5522 5526 5531 5535 5539
5357 5355 5353 5351 5351 5350 5349 5348 5345 5344 5343 5342 5340 5338 5335 5334 5333 5331 5328 5326 5325 5325 5323 5319 5317 5315 5315 5313 5311 5307 5304 5300 5297 5294 5294 5293 5293 5293 5293 5293 5294 5295 5297 5299 5302 5306 5310 5314 5319 5325 5332 5338 5345 5352 5358 5365 5372 5379 5386 5393 5399 5406 5412 5419 5425 5432 5439 5444 5450 5455 5461 5466 5472 5477 5482 5487 5492 5496 5501 5505 5510 5514 5519 5524 5528 5533
5351 5349 5347 5346 5345 5345 5344 5342 5339 5337 5336 5336 5334 5332 5329 5328 5326 5325 5323 5320 5319 5319 5317 5314 5311 5310 5310 5309 5307 5304 5300 5296 5292 5289 5287 5286 5286 5286 5286 5286 5286 5287 5289 5291 5294 5298 5302 5306 5310 5316 5322 5328 5335 5341 5348 5354 5360 5367 5374 5381 5388 5395 5402 5409 5415 5422 5429 5435 5441 5446 5452 5458 5463 5468 5473 5479 5484 5489 5494 5498 5503 5508 5512 5517 5521 5526
5346 5344 5341 5340 5339 5339 5338 5337 5334 5332 5330 5329 5328 5326 5323 5321 5319 5319 5317 5314 5313 5313 5311 5308 5305 5304 5304 5304 5303 5301 5296 5291 5287 5283 5281 5280 5280 5281 5281 5280 5280 5280 5282 5284 5288 5291 5294 5298 5303 5308 5313 5319 5325 5331 5337 5343 5349 5356 5363 5370 5377 5384 5391 5398 5404 5411 5418 5424 5431 5437 5443 5449 5454 5459 5465 5470 5475 5481 5486 5491 5496 5500 5505 5510 5515 5519
5339 5338 5335 5334 5333 5332 5332 5331 5329 5326 5324 5324 5322 5319 5317 5315 5314 5313 5311 5309 5308 5307 5305 5304 5301 5299 5297 5298 5299 5297 5293 5287 5282 5278 5276 5275 5275 5276 5276 5275 5274 5274 5276 5279 5282 5284 5287 5291 5295 5300 5304 5309 5315 5321 5326 5332 5338 5345 5351 5358 5365 5372 5379 5386 5393 5400 5407 5414 5420 5427 5433 5439 5445 5451 5456 5462 5467 5473 5478 5484 5489 5494 5498 5503 5508 5512
5334 5332 5330 5328 5327 5326 5326 5325 5323 5321 5319 5317 5315 5313 5311 5309 5308 5307 5305 5304 5303 5301 5299 5298 5297 5295 5293 5291 5292 5292 5289 5284 5278 5273 5271 5271 5271 5272 5272 5271 5270 5269 5271 5274 5277 5279 5281 5284 5288 5292 5296 5301 5306 5311 5316 5322 5328 5334 5340 5347 5354 5361 5368 5376 5383 5389 5396 5403 5410 5417 5424 5430 5436 5442 5448 5453 5459 5465 5471 5476 5481 5486 5491 5496 5501 5506
5328 5327 5325 5323 5321 5320 5319 5319 5317 5315 5313 5311 5309 5307 5304 5303 5302 5301 5299 5299 5298 5296 5295 5293 5292 5290 5289 5287 5287 5287 5285 5280 5274 5269 5267 5266 5266 5267 5268 5267 5265 5265 5266 5269 5272 5274 5275 5278 5281 5284 5289 5293 5298 5303 5307 5312 5317 5324 5330 5337 5344 5351 5357 5364 5370 5378 5385 5392 5399 5407 5414 5420 5427 5433 5439 5444 5451 5457 5463 5468 5474 5479 5484 5489 5494 5499
5323 5322 5321 5319 5316 5314 5312 5312 5312 5310 5308 5305 5303 5301 5299 5298 5297 5295 5294 5293 5292 5291 5289 5288 5287 5286 5285 5283 5282 5281 5280 5276 5271 5266 5263 5261 5262 5263 5264 5263 5261 5261 5262 5265 5267 5269 5270 5273 5276 5279 5282 5286 5291 5295 5299 5304 5309 5315 5320 5326 5332 5338 5345 5352 5359 5367 5375 5382 5390 5397 5404 5411 5418 5424 5430 5436 5442 5448 5454 5460 5466 5472 5477 5483 5488 5493
5319 5317 5317 5316 5313 5309 5305 5306 5306 5305 5303 5300 5297 5295 5293 5293 5291 5290 5289 5288 5287 5285 5284 5283 5281 5280 5281 5279 5277 5277 5276 5273 5268 5263 5259 5257 5257 5259 5260 5259 5258 5257 5258 5261 5263 5264 5266 5268 5270 5273 5276 5279 5283 5286 5290 5294 5299 5304 5309 5314 5320 5327 5335 5343 5351 5359 5367 5375 5382 5389 5395 5402 5409 5416 5422 5427 5433 5439 5445 5452 5458 5464 5470 5476 5481 5486
5316 5313 5312 5312 5310 5307 5301 5301 5301 5299 5298 5296 5293 5290 5288 5288 5286 5284 5284 5283 5281 5280 5279 5278 5276 5276 5275 5274 5273 5273 5272 5269 5265 5260 5256 5254 5253 5254 5257 5256 5254 5254 5254 5257 5259 5260 5261 5263 5265 5267 5270 5273 5276 5279 5282 5285 5289 5292 5297 5303 5308 5315 5324 5332 5341 5350 5358 5365 5373 5379 5386 5394 5400 5407 5413 5419 5425 5431 5438 5444 5451 5457 5464 5469 5474 5480
5314 5310 5309 5308 5306 5303 5300 5298 5296 5294 5294 5292 5289 5286 5285 5283 5281 5279 5279 5278 5277 5275 5274 5273 5272 5271 5270 5269 5269 5269 5268 5266 5262 5258 5255 5251 5249 5250 5254 5253 5252 5250 5251 5253 5255 5256 5257 5258 5260 5262 5265 5268 5270 5272 5274 5277 5281 5285 5290 5295 5301 5306 5314 5322 5329 5337 5345 5353 5360 5368 5375 5382 5389 5397 5404 5410 5417 5423 5430 5437 5444 5450 5457 5463 5468 5474
5312 5310 5308 5306 5304 5301 5298 5295 5293 5291 5289 5287 5285 5283 5281 5279 5277 5276 5274 5273 5272 5271 5269 5268 5267 5266 5265 5265 5265 5264 5264 5262 5259 5256 5252 5248 5246 5247 5250 5250 5249 5247 5247 5250 5252 5253 5253 5254 5255 5258 5260 5263 5265 5267 5269 5272 5275 5279 5284 5289 5294 5299 5306 5314 5320 5326 5333 5339 5347 5354 5362 5370 5379 5387 5394 5401 5409 5416 5423 5430 5437 5444 5450 5456 5461 5467
5310 5308 5306 5304 5302 5299 5296 5293 5290 5288 5286 5283 5281 5279 5278 5276 5274 5272 5270 5269 5269 5268 5266 5264 5262 5261 5260 5261 5261 5260 5260 5259 5256 5253 5249 5245 5244 5244 5247 5247 5246 5244 5244 5247 5249 5249 5249 5250 5252 5254 5256 5259 5261 5263 5265 5268 5271 5275 5279 5283 5287 5292 5298 5305 5311 5316 5322 5329 5336 5344 5352 5361 5369 5378 5386 5394 5402 5409 5417 5424 5431 5438 5444 5449 5455 5460
5307 5305 5303 5301 5299 5296 5294 5291 5288 5286 5284 5281 5279 5276 5274 5273 5271 5269 5267 5266 5266 5264 5263 5260 5258 5256 5256 5256 5256 5255 5256 5255 5253 5249 5246 5243 5241 5241 5244 5244 5244 5242 5242 5244 5245 5246 5246 5247 5248 5250 5253 5255 5257 5259 5261 5264 5267 5270 5273 5277 5280 5284 5289 5294 5299 5305 5312 5319 5327 5335 5344 5353 5361 5370 5379 5387 5395 5403 5410 5417 5424 5431 5437 5443 5449 5454
5304 5302 5299 5298 5296 5294 5291 5289 5286 5284 5281 5279 5276 5275 5274 5271 5269 5265 5263 5262 5262 5261 5259 5256 5254 5253 5253 5252 5251 5251 5251 5250 5249 5246 5244 5241 5238 5238 5240 5242 5242 5241 5240 5241 5242 5243 5243 5244 5245 5247 5249 5251 5253 5255 5257 5260 5262 5265 5268 5271 5274 5277 5281 5285 5290 5296 5304 5312 5320 5328 5336 5345 5354 5363 5371 5380 5388 5396 5404 5411 5418 5424 5430 5436 5442 5448
5301 5299 5297 5295 5293 5291 5289 5286 5284 5281 5279 5277 5275 5273 5272 5270 5266 5262 5259 5259 5259 5257 5255 5252 5251 5250 5249 5249 5248 5247 5247 5246 5245 5243 5241 5238 5235 5234 5236 5239 5240 5239 5238 5238 5239 5240 5241 5241 5243 5244 5246 5248 5249 5251 5253 5255 5258 5260 5263 5266 5269 5272 5275 5279 5284 5290 5297 5305 5313 5321 5329 5338 5346 5355 5364 5373 5381 5389 5397 5404 5411 5417 5423 5429 5435 5441
5299 5296 5294 5292 5290 5288 5286 5283 5281 5279 5277 5274 5273 5271 5270 5269 5264 5258 5256 5256 5256 5254 5251 5249 5249 5248 5246 5245 5244 5243 5242 5242 5241 5240 5238 5235 5232 5231 5234 5236 5237 5237 5236 5235 5236 5237 5238 5239 5240 5242 5243 5244 5246 5248 5249 5251 5254 5256 5259 5261 5264 5266 5269 5274 5279 5285 5292 5299 5307 5315 5323 5331 5339 5349 5357 5366 5374 5383 5390 5397 5404 5410 5416 5423 5429 5436
5295 5293 5291 5289 5287 5285 5283 5280 5278 5276 5274 5272 5270 5268 5267 5265 5261 5257 5254 5254 5254 5251 5248 5247 5246 5245 5244 5242 5240 5239 5239 5239 5238 5237 5235 5232 5229 5229 5232 5233 5234 5234 5234 5234 5234 5234 5235 5237 5238 5240 5241 5242 5243 5244 5246 5248 5250 5252 5254 5257 5259 5262 5265 5269 5274 5281 5288 5295 5302 5309 5316 5324 5333 5342 5351 5359 5368 5376 5384 5391 5397 5404 5410 5417 5424 5431
5293 5290 5288 5286 5284 5283 5280 5278 5276 5274 5272 5269 5267 5265 5264 5261 5258 5255 5254 5253 5251 5249 5246 5245 5244 5243 5241 5240 5239 5237 5236 5236 5235 5234 5232 5229 5227 5227 5229 5230 5231 5231 5232 5231 5231 5231 5232 5234 5236 5238 5238 5239 5241 5242 5244 5245 5247 5249 5251 5253 5255 5258 5262 5266 5271 5277 5284 5290 5297 5304 5311 5319 5327 5335 5344 5353 5362 5370 5377 5384 5391 5398 5404 5411 5419 5426
5290 5288 5285 5284 5282 5279 5278 5276 5274 5272 5269 5267 5265 5263 5260 5258 5256 5254 5253 5251 5249 5247 5245 5243 5242 5240 5239 5238 5236 5235 5234 5233 5233 5231 5229 5226 5225 5225 5228 5228 5228 5229 5229 5229 5228 5228 5229 5232 5234 5235 5236 5237 5238 5240 5241 5243 5245 5246 5248 5250 5253 5255 5259 5263 5268 5274 5280 5286 5292 5298 5305 5313 5321 5329 5338 5347 5355 5364 5371 5378 5385 5392 5399 5406 5414 5421
5287 5285 5283 5280 5279 5277 5275 5273 5272 5269 5268 5265 5263 5261 5259 5256 5255 5253 5251 5249 5248 5246 5244 5242 5240 5239 5237 5236 5234 5233 5232 5232 5231 5229 5227 5225 5224 5224 5226 5226 5226 5227 5227 5227 5226 5226 5227 5229 5231 5233 5234 5235 5236 5238 5239 5241 5243 5244 5246 5248 5250 5253 5256 5259 5264 5269 5274 5280 5286 5293 5299 5307 5315 5323 5332 5341 5349 5357 5365 5372 5379 5387 5394 5402 5409 5416
5285 5283 5280 5278 5276 5274 5273 5271 5269 5268 5266 5264 5262 5260 5258 5255 5254 5252 5250 5248 5246 5245 5243 5241 5239 5237 5236 5235 5233 5232 5231 5231 5230 5228 5226 5224 5224 5224 5224 5225 5225 5225 5225 5225 5224 5224 5225 5226 5229 5230 5231 5232 5234 5236 5237 5239 5240 5242 5244 5245 5248 5250 5253 5256 5260 5264 5269 5274 5280 5287 5294 5301 5309 5317 5326 5334 5343 5351 5359 5366 5374 5382 5389 5397 5404 5410
5283 5281 5279 5276 5274 5272 5271 5269 5268 5266 5264 5263 5261 5259 5257 5255 5253 5251 5249 5247 5245 5243 5241 5240 5238 5237 5235 5234 5233 5232 5230 5230 5229 5228 5226 5224 5223 5223 5223 5224 5224 5224 5224 5224 5224 5224 5224 5225 5226 5228 5229 5230 5232 5233 5235 5236 5237 5239 5241 5243 5245 5247 5249 5252 5255 5259 5264 5269 5275 5282 5289 5296 5304 5312 5320 5329 5337 5345 5353 5361 5369 5377 5384 5391 5398 5404
5282 5279 5277 5275 5273 5271 5269 5268 5266 5264 5263 5262 5260 5259 5257 5254 5252 5250 5248 5246 5244 5242 5240 5239 5237 5236 5235 5234 5233 5231 5230 5230 5229 5228 5226 5224 5223 5223 5223 5223 5223 5223 5223 5223 5223 5223 5223 5224 5224 5226 5227 5228 5229 5231 5233 5234 5235 5237 5238 5240 5242 5244 5245 5248 5251 5254 5259 5264 5271 5278 5284 5292 5299 5307 5315 5323 5331 5339 5347 5355 5364 5371 5379 5385 5392 5399
5280 5278 5276 5273 5271 5269 5268 5266 5264 5262 5262 5260 5259 5257 5255 5253 5250 5249 5246 5244 5243 5241 5239 5238 5236 5235 5234 5233 5232 5232 5231 5230 5229 5227 5226 5225 5224 5223 5223 5223 5223 5223 5223 5222 5222 5222 5223 5223 5224 5224 5226 5227 5228 5229 5231 5232 5234 5235 5236 5238 5239 5241 5243 5245 5248 5251 5255 5261 5267 5274 5280 5288 5295 5303 5310 5318 5325 5334 5342 5350 5358 5366 5373 5380 5387 5394
5278 5276 5274 5272 5270 5268 5266 5264 5262 5261 5260 5258 5257 5255 5253 5251 5249 5247 5245 5244 5242 5240 5239 5237 5236 5235 5234 5233 5232 5231 5230 5230 5229 5228 5227 5226 5226 5225 5223 5223 5223 5223 5223 5222 5222 5222 5222 5223 5223 5224 5225 5225 5227 5228 5229 5231 5232 5234 5235 5236 5237 5239 5240 5242 5245 5249 5253 5258 5264 5269 5276 5284 5292 5299 5306 5314 5321 5329 5337 5345 5353 5360 5368 5375 5382 5389
5277 5275 5273 5270 5269 5267 5265 5263 5261 5260 5259 5257 5255 5253 5251 5249 5248 5246 5244 5242 5241 5239 5238 5237 5236 5234 5234 5233 5232 5231 5230 5229 5229 5228 5228 5227 5226 5225 5224 5224 5223 5223 5223 5222 5222 5222 5222 5223 5223 5224 5225 5226 5227 5228 5229 5231 5233 5234 5235 5236 5236 5237 5239 5240 5243 5247 5251 5255 5261 5267 5274 5281 5288 5295 5303 5310 5317 5325 5333 5341 5348 5355 5363 5370 5378 5386
5275 5273 5271 5269 5268 5266 5264 5263 5261 5259 5258 5256 5254 5252 5250 5249 5247 5245 5243 5242 5240 5239 5238 5237 5235 5234 5234 5232 5231 5230 5229 5229 5228 5228 5228 5227 5226 5226 5225 5224 5224 5223 5223 5223 5223 5223 5223 5223 5224 5224 5225 5227 5228 5229 5230 5232 5234 5235 5236 5236 5236 5236 5238 5239 5242 5245 5249 5254 5259 5265 5272 5278 5285 5292 5299 5307 5314 5322 5329 5336 5343 5351 5359 5366 5374 5382
5274 5272 5270 5269 5267 5265 5264 5263 5261 5259 5258 5256 5254 5252 5250 5249 5247 5245 5244 5242 5240 5239 5238 5236 5235 5234 5233 5231 5230 5229 5229 5229 5228 5228 5227 5227 5226 5226 5225 5225 5224 5224 5224 5224 5224 5224 5224 5224 5225 5225 5226 5228 5229 5230 5232 5234 5236 5237 5237 5236 5235 5236 5237 5239 5242 5245 5249 5253 5259 5264 5270 5276 5283 5290 5297 5304 5311 5318 5325 5332 5340 5347 5355 5362 5370 5378
5274 5271 5269 5268 5266 5265 5264 5262 5261 5259 5258 5256 5254 5252 5250 5249 5247 5246 5244 5243 5241 5239 5238 5236 5235 5234 5232 5231 5230 5230 5229 5229 5229 5228 5228 5227 5227 5227 5227 5226 5227 5227 5227 5226 5226 5225 5226 5226 5226 5227 5228 5229 5232 5234 5235 5236 5237 5237 5237 5236 5236 5236 5238 5240 5243 5246 5249 5253 5258 5263 5269 5275 5281 5288 5294 5302 5309 5315 5322 5330 5337 5345 5352 5359 5367 5374
5273 5271 5269 5267 5266 5264 5263 5262 5261 5260 5258 5256 5254 5252 5250 5249 5248 5247 5245 5244 5242 5240 5238 5236 5235 5234 5233 5232 5231 5231 5231 5230 5229 5229 5229 5230 5230 5230 5230 5229 5229 5229 5230 5229 5228 5227 5227 5228 5228 5229 5229 5232 5235 5237 5237 5237 5237 5237 5237 5236 5237 5238 5240 5242 5244 5247 5250 5253 5258 5262 5268 5274 5279 5286 5293 5299 5306 5313 5320 5328 5335 5342 5349 5356 5364 5371
5273 5271 5269 5267 5265 5264 5263 5261 5260 5259 5258 5257 5254 5253 5251 5249 5249 5247 5246 5245 5243 5241 5239 5238 5237 5236 5235 5234 5234 5233 5233 5232 5232 5233 5233 5233 5232 5232 5232 5232 5232 5232 5233 5233 5232 5231 5230 5230 5230 5231 5232 5234 5236 5237 5237 5237 5237 5237 5237 5237 5238 5239 5241 5243 5245 5248 5250 5254 5259 5263 5268 5273 5279 5285 5292 5299 5305 5312 5319 5326 5333 5340 5347 5354 5361 5368
5273 5271 5269 5267 5265 5264 5262 5261 5260 5259 5258 5257 5255 5253 5252 5250 5249 5248 5247 5246 5245 5244 5242 5241 5240 5239 5238 5237 5236 5235 5234 5234 5234 5234 5234 5233 5232 5232 5232 5232 5233 5233 5234 5234 5234 5233 5233 5232 5232 5233 5234 5236 5237 5238 5238 5238 5238 5238 5238 5238 5239 5241 5243 5245 5247 5249 5253 5256 5260 5264 5269 5274 5280 5286 5293 5299 5305 5312 5318 5325 5332 5338 5345 5352 5359 5365
5272 5270 5269 5267 5265 5264 5262 5261 5260 5259 5258 5256 5255 5253 5252 5251 5249 5249 5248 5247 5246 5245 5244 5243 5242 5241 5239 5238 5237 5236 5236 5235 5234 5234 5234 5233 5232 5232 5232 5232 5232 5232 5233 5234 5234 5234 5234 5234 5234 5234 5235 5236 5237 5238 5238 5239 5239 5239 5239 5240 5241 5243 5245 5247 5249 5252 5255 5259 5263 5267 5272 5277 5282 5288 5293 5299 5305 5311 5318 5324 5331 5337 5344 5350 5356 5363
5272 5270 5269 5267 5265 5264 5262 5261 5260 5259 5258 5256 5255 5254 5253 5251 5249 5248 5247 5247 5247 5246 5245 5244 5243 5241 5240 5239 5237 5237 5236 5235 5234 5234 5234 5234 5234 5234 5234 5234 5233 5233 5233 5234 5234 5235 5235 5235 5235 5235 5235 5237 5238 5239 5239 5240 5240 5240 5241 5242 5243 5245 5247 5249 5252 5255 5259 5262 5266 5270 5275 5280 5284 5289 5294 5299 5305 5311 5318 5324 5330 5336 5343 5349 5355 5361
5273 5271 5269 5267 5265 5264 5263 5261 5260 5259 5258 5256 5255 5254 5253 5252 5250 5249 5248 5247 5246 5246 5245 5244 5243 5241 5240 5239 5238 5237 5236 5235 5235 5234 5234 5234 5234 5235 5235 5235 5235 5235 5235 5235 5235 5236 5236 5236 5236 5237 5237 5239 5239 5240 5241 5241 5241 5242 5243 5244 5246 5248 5250 5253 5255 5259 5263 5266 5269 5274 5278 5282 5287 5291 5297 5302 5307 5312 5318 5324 5330 5336 5342 5348 5354 5359
5273 5272 5270 5268 5266 5265 5263 5262 5261 5259 5258 5257 5256 5255 5254 5252 5251 5249 5248 5247 5246 5245 5245 5244 5243 5242 5241 5240 5239 5238 5237 5236 5236 5235 5235 5235 5235 5235 5235 5236 5236 5236 5237 5237 5237 5237 5238 5238 5238 5238 5239 5241 5241 5242 5242 5243 5243 5244 5246 5247 5249 5252 5254 5257 5259 5263 5266 5269 5273 5277 5281 5285 5289 5294 5299 5304 5309 5313 5318 5324 5330 5335 5341 5347 5352 5358
5274 5272 5271 5269 5268 5266 5264 5263 5262 5261 5259 5258 5257 5256 5254 5253 5252 5250 5249 5247 5246 5245 5244 5244 5243 5242 5241 5240 5239 5239 5238 5238 5237 5237 5237 5237 5237 5237 5237 5238 5238 5238 5239 5239 5239 5239 5240 5240 5240 5240 5241 5243 5244 5244 5244 5245 5246 5248 5249 5251 5253 5255 5258 5261 5263 5266 5270 5273 5277 5281 5284 5289 5293 5297 5302 5306 5310 5314 5319 5324 5330 5335 5341 5346 5351 5357
5275 5273 5272 5270 5269 5267 5266 5264 5263 5262 5261 5259 5258 5257 5256 5254 5253 5252 5250 5249 5248 5247 5246 5245 5244 5244 5243 5242 5241 5240 5240 5240 5240 5240 5240 5240 5240 5240 5240 5240 5240 5241 5241 5241 5242 5242 5242 5242 5242 5243 5244 5244 5245 5246 5247 5248 5249 5250 5252 5253 5255 5259 5262 5265 5268 5271 5274 5277 5280 5284 5288 5291 5295 5299 5304 5307 5311 5316 5320 5325 5330 5335 5341 5346 5351 5356